Weather History for Bartow, FL

Change the Weather History Date:

Thursday, May 15, 2014

  Actual Average Record
Temperature  
Mean Temperature 78 °F -  
Max Temperature 86 °F 90 °F 100 °F (1967)
Min Temperature 71 °F 65 °F 52 °F (1941)
Cooling Degree Days 14    
Growing Degree Days 28 (Base 50)    
Moisture  
Dew Point 72 °F    
Average Humidity 91    
Maximum Humidity 100    
Minimum Humidity 62    
Precipitation  
Precipitation 0.00 in - - ()
Sea Level Pressure  
Sea Level Pressure 29.97 in    
Wind  
Wind Speed 7 mph (SE)    
Max Wind Speed 20 mph    
Max Gust Speed 18 mph    
Visibility 10 miles    
Events Rain , Thunderstorm    
Averages and records for this station are not official NWS values.
T = Trace of Precipitation, MM = Missing Value Source: NWS Daily Summary

Daily Weather History Graph

Daily Weather History Graph

Search for Another Location

Airport:

Trip Planner

Search our weather history database for the weather conditions in past years. The results will help you decide how hot, cold, wet, or windy it might be!

Date:

Astronomy

May. 15, 2014 Rise Set
Actual Time 6:37 AM EDT 8:09 PM EDT
Civil Twilight 6:12 AM EDT 8:35 PM EDT
Nautical Twilight 5:41 AM EDT 9:05 PM EDT
Astronomical Twilight 5:09 AM EDT 9:37 PM EDT
Moon 9:16 PM EDT (5/15) 7:22 AM EDT (5/15)
Length of Visible Light 14h 23m
Length of Day
13h 32m
Full, 99% of the Moon is Illuminated
May 15
Full
May 21
Last Quarter
May 28
New
Jun 5
First Quarter
Jun 13
Full

Hourly Weather History & Observations

Time (EDT) Temp. Heat Index Dew Point Humidity Pressure Visibility Wind Dir Wind Speed Gust Speed Precip Events Conditions
12:15 AM 71.6 °F - 69.8 °F 94% 30.03 in 10.0 mi ESE 5.8 mph - N/A   Clear
12:35 AM 73.4 °F - 69.8 °F 88% 30.03 in 10.0 mi East 4.6 mph - N/A   Clear
12:55 AM 71.6 °F - 69.8 °F 94% 30.03 in 10.0 mi East 4.6 mph - N/A   Clear
1:15 AM 71.6 °F - 69.8 °F 94% 30.02 in 10.0 mi East 5.8 mph - N/A   Clear
1:55 AM 71.6 °F - 69.8 °F 94% 30.01 in 10.0 mi ESE 4.6 mph - N/A   Clear
2:15 AM 71.6 °F - 71.6 °F 100% 30.00 in 10.0 mi ESE 4.6 mph - N/A   Clear
2:35 AM 71.6 °F - 71.6 °F 100% 29.99 in 10.0 mi ESE 6.9 mph - N/A   Partly Cloudy
2:55 AM 71.6 °F - 71.6 °F 100% 29.98 in 10.0 mi SE 6.9 mph - N/A   Scattered Clouds
3:15 AM 71.6 °F - 71.6 °F 100% 29.98 in 10.0 mi SE 4.6 mph - N/A   Scattered Clouds
3:35 AM 71.6 °F - 71.6 °F 100% 29.98 in 10.0 mi ESE 3.5 mph - N/A   Scattered Clouds
3:55 AM 73.4 °F - 73.4 °F 100% 29.97 in 10.0 mi SE 6.9 mph - N/A   Mostly Cloudy
4:15 AM 73.4 °F - 73.4 °F 100% 29.96 in 10.0 mi SE 6.9 mph - N/A   Partly Cloudy
4:35 AM 73.4 °F - 73.4 °F 100% 29.96 in 10.0 mi SE 6.9 mph - N/A   Clear
4:55 AM 73.4 °F - 73.4 °F 100% 29.96 in 10.0 mi SE 6.9 mph - N/A   Scattered Clouds
5:15 AM 71.6 °F - 71.6 °F 100% 29.97 in 10.0 mi SE 5.8 mph - N/A   Mostly Cloudy
5:35 AM 71.6 °F - 71.6 °F 100% 29.97 in 10.0 mi SE 5.8 mph - N/A   Partly Cloudy
6:15 AM 71.6 °F - 71.6 °F 100% 29.98 in 10.0 mi SE 3.5 mph - N/A   Clear
6:35 AM 71.6 °F - 71.6 °F 100% 29.97 in 10.0 mi ESE 4.6 mph - N/A   Clear
6:55 AM 71.6 °F - 71.6 °F 100% 29.98 in 10.0 mi ESE 4.6 mph - N/A   Mostly Cloudy
7:15 AM 71.6 °F - 71.6 °F 100% 29.98 in 10.0 mi ESE 4.6 mph - N/A   Mostly Cloudy
7:47 AM 71.6 °F - 71.6 °F 100% 29.99 in 10.0 mi SE 6.9 mph - N/A   Mostly Cloudy
8:50 AM 77.0 °F - 71.6 °F 83% 29.99 in 10.0 mi SE 17.3 mph - N/A   Mostly Cloudy
9:50 AM 80.6 °F 84.6 °F 71.6 °F 74% 29.98 in 10.0 mi SSE 15.0 mph - N/A   Mostly Cloudy
10:50 AM 82.4 °F 87.2 °F 71.6 °F 70% 29.98 in 10.0 mi South 17.3 mph - N/A   Mostly Cloudy
11:50 AM 86.0 °F 91.8 °F 71.6 °F 62% 29.97 in 10.0 mi South 19.6 mph - N/A   Mostly Cloudy
12:50 PM 84.2 °F 88.4 °F 69.8 °F 62% 29.95 in 10.0 mi SSW 11.5 mph 18.4 mph N/A   Mostly Cloudy
1:28 PM 80.6 °F 85.4 °F 73.4 °F 79% 29.96 in 1.8 mi SW 17.3 mph - N/A Rain , Thunderstorm Heavy Thunderstorms and Rain
1:50 PM 73.4 °F - 73.4 °F 100% 29.95 in 1.0 mi South 17.3 mph - N/A Rain , Thunderstorm Heavy Thunderstorms and Rain
3:10 PM 75.2 °F - 75.2 °F 100% 29.93 in 7.0 mi East 8.1 mph - N/A   Mostly Cloudy
3:50 PM 78.8 °F - 73.4 °F 83% 29.91 in 7.0 mi Variable 5.8 mph - N/A   Mostly Cloudy
4:50 PM 80.6 °F 84.6 °F 71.6 °F 74% 29.92 in 10.0 mi West 11.5 mph - N/A   Mostly Cloudy
5:55 PM 80.6 °F 85.4 °F 73.4 °F 79% 29.92 in 10.0 mi East 6.9 mph - N/A   Mostly Cloudy
6:15 PM 78.8 °F - 73.4 °F 83% 29.92 in 10.0 mi East 4.6 mph - N/A   Mostly Cloudy
6:35 PM 77.0 °F - 75.2 °F 94% 29.92 in 10.0 mi East 6.9 mph - N/A   Scattered Clouds
6:55 PM 77.0 °F - 75.2 °F 94% 29.93 in 10.0 mi ESE 4.6 mph - N/A   Scattered Clouds
7:15 PM 75.2 °F - 75.2 °F 100% 29.93 in 10.0 mi ESE 4.6 mph - N/A   Mostly Cloudy
7:35 PM 75.2 °F - 75.2 °F 100% 29.94 in 10.0 mi East 3.5 mph - N/A   Overcast
7:55 PM 75.2 °F - 75.2 °F 100% 29.95 in 10.0 mi East 3.5 mph - N/A   Mostly Cloudy
8:15 PM 75.2 °F - 75.2 °F 100% 29.96 in 10.0 mi Calm Calm - N/A Rain Light Rain
8:35 PM 75.2 °F - 75.2 °F 100% 29.97 in 10.0 mi WNW 4.6 mph - N/A   Overcast
8:55 PM 77.0 °F - 69.8 °F 78% 29.97 in 10.0 mi WNW 9.2 mph - N/A   Scattered Clouds
9:15 PM 75.2 °F - 69.8 °F 83% 29.98 in 10.0 mi WNW 10.4 mph - N/A   Mostly Cloudy
9:35 PM 75.2 °F - 69.8 °F 83% 29.98 in 10.0 mi West 8.1 mph - N/A   Mostly Cloudy
9:55 PM 75.2 °F - 68.0 °F 78% 29.99 in 10.0 mi WNW 8.1 mph - N/A   Partly Cloudy
10:15 PM 73.4 °F - 68.0 °F 83% 29.99 in 10.0 mi WNW 6.9 mph - N/A   Clear
10:35 PM 73.4 °F - 69.8 °F 88% 29.99 in 10.0 mi West 6.9 mph - N/A   Clear
10:55 PM 73.4 °F - 69.8 °F 88% 29.99 in 10.0 mi West 6.9 mph - N/A   Clear
11:15 PM 73.4 °F - 69.8 °F 88% 30.00 in 10.0 mi West 9.2 mph - N/A   Clear
11:35 PM 73.4 °F - 69.8 °F 88% 30.01 in 10.0 mi West 10.4 mph - N/A   Partly Cloudy